• In Romania
  • List of Countries
  • For 7 days
  • Water Temperature
  • Satellite Maps
  • Weather Map
  • Weather Widgets
  • user-avatar
    Login

    Hourly Weather Sydney

    Today, 20 September, Wednesday

    Time Temperature Precipitation Wind Pressure Humidity
    00:00 +10°C° 0 mm 4 mps 764 mmHg 64%
    01:00 +10°C° 0 mm 4 mps 764 mmHg 67%
    02:00 +8°C° 0 mm 4 mps 764 mmHg 69%
    03:00 +8°C° 0 mm 4 mps 764 mmHg 71%
    04:00 +8°C° 0 mm 3 mps 764 mmHg 74%
    05:00 +9°C° 0 mm 3 mps 765 mmHg 71%
    06:00 +10°C° 0 mm 3 mps 765 mmHg 68%
    07:00 +10°C° 0 mm 4 mps 765 mmHg 65%
    08:00 +13°C° 0 mm 3 mps 765 mmHg 58%
    09:00 +17°C° 0 mm 3 mps 765 mmHg 51%
    10:00 +21°C° 0 mm 3 mps 764 mmHg 43%
    11:00 +21°C° 0 mm 3 mps 764 mmHg 40%
    12:00 +23°C° 0 mm 2 mps 763 mmHg 37%
    13:00 +24°C° 0 mm 2 mps 763 mmHg 34%
    14:00 +24°C° 0 mm 3 mps 762 mmHg 36%
    15:00 +22°C° 0 mm 3 mps 762 mmHg 38%
    16:00 +22°C° 0 mm 4 mps 762 mmHg 41%
    17:00 +19°C° 0 mm 3 mps 762 mmHg 52%
    18:00 +17°C° 0 mm 3 mps 762 mmHg 63%
    19:00 +14°C° 0 mm 3 mps 763 mmHg 75%
    20:00 +14°C° 0 mm 2 mps 763 mmHg 79%
    21:00 +13°C° 0 mm 1 mps 763 mmHg 83%
    22:00 +12°C° 0 mm 1 mps 763 mmHg 88%
    23:00 +12°C° 0 mm 1 mps 763 mmHg 89%

    Tomorrow, 21 September, Thursday

    Time Temperature Precipitation Wind Pressure Humidity
    00:00 +12°C° 0 mm 1 mps 763 mmHg 90%
    01:00 +11°C° 0 mm 1 mps 763 mmHg 91%
    02:00 +10°C° 0 mm 2 mps 763 mmHg 91%
    03:00 +10°C° 0 mm 2 mps 762 mmHg 91%
    04:00 +10°C° 0 mm 2 mps 762 mmHg 91%
    05:00 +10°C° 0 mm 2 mps 762 mmHg 86%
    06:00 +12°C° 0 mm 2 mps 762 mmHg 80%
    07:00 +13°C° 0 mm 2 mps 762 mmHg 75%
    08:00 +16°C° 0 mm 2 mps 762 mmHg 61%
    09:00 +20°C° 0 mm 2 mps 762 mmHg 47%
    10:00 +25°C° 0 mm 2 mps 761 mmHg 32%
    11:00 +27°C° 0 mm 3 mps 761 mmHg 28%
    12:00 +28°C° 0 mm 3 mps 760 mmHg 24%
    13:00 +30°C° 0 mm 4 mps 759 mmHg 20%
    14:00 +30°C° 0 mm 4 mps 759 mmHg 22%
    15:00 +29°C° 0 mm 5 mps 758 mmHg 24%
    16:00 +29°C° 0 mm 6 mps 758 mmHg 26%
    17:00 +26°C° 0 mm 5 mps 758 mmHg 34%
    18:00 +23°C° 0 mm 5 mps 759 mmHg 41%
    19:00 +20°C° 0 mm 4 mps 759 mmHg 49%
    20:00 +19°C° 0 mm 4 mps 760 mmHg 51%
    21:00 +18°C° 0 mm 4 mps 760 mmHg 54%
    22:00 +17°C° 0 mm 3 mps 760 mmHg 56%
    23:00 +16°C° 0 mm 3 mps 760 mmHg 56%

    Day after tomorrow, 22 September, Friday

    Time Temperature Precipitation Wind Pressure Humidity
    00:00 +16°C° 0 mm 3 mps 760 mmHg 55%
    01:00 +14°C° 0 mm 3 mps 760 mmHg 55%
    02:00 +14°C° 0 mm 3 mps 759 mmHg 53%
    03:00 +15°C° 0 mm 2 mps 759 mmHg 52%
    04:00 +15°C° 0 mm 2 mps 759 mmHg 50%
    05:00 +15°C° 0 mm 2 mps 759 mmHg 47%
    06:00 +16°C° 0 mm 2 mps 760 mmHg 43%
    07:00 +17°C° 0 mm 2 mps 760 mmHg 40%
    08:00 +21°C° 0 mm 3 mps 760 mmHg 33%
    09:00 +25°C° 0 mm 3 mps 760 mmHg 25%
    10:00 +29°C° 0 mm 4 mps 759 mmHg 18%
    11:00 +32°C° 0 mm 4 mps 759 mmHg 16%
    12:00 +33°C° 0 mm 4 mps 758 mmHg 14%
    13:00 +35°C° 0 mm 4 mps 757 mmHg 11%
    14:00 +34°C° 0 mm 4 mps 757 mmHg 13%
    15:00 +34°C° 0 mm 4 mps 757 mmHg 14%
    16:00 +34°C° 0 mm 5 mps 756 mmHg 15%
    17:00 +30°C° 0 mm 4 mps 757 mmHg 21%
    18:00 +27°C° 0 mm 4 mps 757 mmHg 26%
    19:00 +23°C° 0 mm 4 mps 758 mmHg 32%
    20:00 +22°C° 0 mm 4 mps 758 mmHg 34%
    21:00 +21°C° 0 mm 3 mps 758 mmHg 35%
    22:00 +20°C° 0 mm 3 mps 758 mmHg 36%
    23:00 +19°C° 0 mm 3 mps 758 mmHg 37%

    23 September, Saturday

    Time Temperature Precipitation Wind Pressure Humidity
    00:00 +18°C° 0 mm 3 mps 757 mmHg 39%
    01:00 +18°C° 0 mm 3 mps 757 mmHg 40%
    02:00 +17°C° 0 mm 3 mps 756 mmHg 39%
    03:00 +17°C° 0 mm 3 mps 756 mmHg 39%
    04:00 +17°C° 0 mm 3 mps 755 mmHg 39%
    05:00 +18°C° 0 mm 3 mps 756 mmHg 37%
    06:00 +19°C° 0 mm 3 mps 756 mmHg 36%
    07:00 +19°C° 0 mm 3 mps 756 mmHg 34%
    08:00 +25°C° 0 mm 4 mps 755 mmHg 27%
    09:00 +29°C° 0 mm 4 mps 755 mmHg 21%
    10:00 +34°C° 0 mm 5 mps 755 mmHg 14%
    11:00 +35°C° 0 mm 5 mps 754 mmHg 12%
    12:00 +36°C° 0 mm 5 mps 753 mmHg 11%
    13:00 +39°C° 0 mm 6 mps 752 mmHg 10%
    14:00 +39°C° 0 mm 5 mps 751 mmHg 10%
    15:00 +37°C° 0 mm 4 mps 751 mmHg 9%
    16:00 +37°C° 0 mm 4 mps 750 mmHg 9%
    17:00 +34°C° 0 mm 3 mps 751 mmHg 12%
    18:00 +31°C° 0 mm 2 mps 751 mmHg 16%
    19:00 +28°C° 0 mm 1 mps 752 mmHg 19%
    20:00 +27°C° 0 mm 2 mps 751 mmHg 21%
    21:00 +26°C° 0 mm 3 mps 751 mmHg 23%
    22:00 +25°C° 0 mm 4 mps 750 mmHg 25%
    23:00 +25°C° 0 mm 4 mps 749 mmHg 26%

    24 September, Sunday

    Time Temperature Precipitation Wind Pressure Humidity
    00:00 +25°C° 0 mm 4 mps 749 mmHg 27%
    01:00 +23°C° 0 mm 4 mps 748 mmHg 28%
    02:00 +25°C° 0 mm 5 mps 748 mmHg 26%
    03:00 +26°C° 0 mm 5 mps 748 mmHg 23%
    04:00 +26°C° 0 mm 6 mps 748 mmHg 20%
    05:00 +26°C° 0 mm 6 mps 750 mmHg 25%
    06:00 +25°C° 0 mm 5 mps 751 mmHg 30%
    07:00 +23°C° 0 mm 5 mps 752 mmHg 35%
    08:00 +27°C° 0 mm 6 mps 752 mmHg 29%
    09:00 +29°C° 0 mm 6 mps 751 mmHg 23%
    10:00 +32°C° 0 mm 6 mps 751 mmHg 16%
    11:00 +33°C° 0 mm 7 mps 751 mmHg 16%
    12:00 +33°C° 0 mm 7 mps 750 mmHg 15%
    13:00 +34°C° 0 mm 8 mps 750 mmHg 15%
    14:00 +33°C° 0 mm 8 mps 750 mmHg 15%
    15:00 +33°C° 0 mm 8 mps 750 mmHg 15%
    16:00 +32°C° 0 mm 8 mps 750 mmHg 15%
    17:00 +29°C° 0 mm 7 mps 751 mmHg 18%
    18:00 +27°C° 0 mm 6 mps 752 mmHg 20%
    19:00 +25°C° 0 mm 5 mps 753 mmHg 23%
    20:00 +22°C° 0 mm 5 mps 753 mmHg 25%
    21:00 +21°C° 0 mm 4 mps 754 mmHg 27%
    22:00 +20°C° 0 mm 4 mps 754 mmHg 29%
    23:00 +19°C° 0 mm 3 mps 754 mmHg 31%

    25 September, Monday

    Time Temperature Precipitation Wind Pressure Humidity
    00:00 +18°C° 0 mm 2 mps 754 mmHg 33%
    01:00 +18°C° 0 mm 1 mps 755 mmHg 35%
    02:00 +16°C° 0 mm 2 mps 755 mmHg 36%
    03:00 +16°C° 0 mm 2 mps 755 mmHg 38%
    04:00 +15°C° 0 mm 2 mps 756 mmHg 39%
    05:00 +16°C° 0 mm 2 mps 757 mmHg 38%
    06:00 +16°C° 0 mm 3 mps 757 mmHg 37%
    07:00 +17°C° 0 mm 3 mps 758 mmHg 37%
    08:00 +20°C° 0 mm 3 mps 758 mmHg 32%
    09:00 +22°C° 0 mm 3 mps 757 mmHg 27%
    10:00 +26°C° 0 mm 3 mps 757 mmHg 22%
    11:00 +27°C° 0 mm 3 mps 757 mmHg 22%
    12:00 +28°C° 0 mm 4 mps 757 mmHg 22%
    13:00 +29°C° 0 mm 4 mps 756 mmHg 22%
    14:00 +27°C° 0.1 mm 4 mps 757 mmHg 26%
    15:00 +26°C° 0.1 mm 4 mps 757 mmHg 31%
    16:00 +25°C° 0.1 mm 4 mps 757 mmHg 35%
    17:00 +22°C° 0.1 mm 4 mps 758 mmHg 40%
    18:00 +21°C° 0.1 mm 4 mps 758 mmHg 44%
    19:00 +19°C° 0.1 mm 3 mps 759 mmHg 48%
    20:00 +18°C° 0 mm 3 mps 760 mmHg 51%
    21:00 +18°C° 0 mm 3 mps 760 mmHg 54%
    22:00 +17°C° 0 mm 2 mps 760 mmHg 57%
    23:00 +16°C° 0.2 mm 2 mps 760 mmHg 62%
    Show more